User: anonymous   Login
Location: Drayton Valley
(53.2170°N, 114.9830°W)
Time: 20:20:56
(UTC-07:00)
Language:

Cosmos 1302 Rocket - Orbit

View from above orbital plane
View from above orbital plane
View from above satellite
View from above satellite

Ground track
Ground track

The orbit data is extracted from the following two-line orbital elements,

1 12792U 81084B   14326.13506227  .00000310  00000-0  11300-3 0  6678
2 12792 074.0301 321.9400 0012317 116.5749 290.5524 14.37181790740283
Epoch (UTC): 22 November 2014 03:14:29
Eccentricity: 0.0012317
inclination: 74.0301°
perigee height: 759 km
apogee height: 776 km
right ascension of ascending node: 321.9400°
argument of perigee: 116.5749°
revolutions per day: 14.37181790
mean anomaly at epoch: 290.5524°
orbit number at epoch: 74028

The dashed part of the orbit path shows where the satellite is in the earth's shadow,  

DLR